User: anonymous
Location: Unspecified
(0.0000°N, 0.0000°E)
Time: 09:42:32
(UTC+00:00)
Language:

STSS DEMO 1 (USA 208) - Orbit

View from above orbital plane
View from above orbital plane
View from above satellite
View from above satellite

Ground track
Ground track

The orbit data is extracted from the following two-line orbital elements,

1 35937U 09052A   14275.80623617 0.00000000  00000-0  00000-0 0    08
2 35937  57.9887 175.8725 0010464  10.0020 349.9980 12.79126520    03
Epoch (UTC): 02 October 2014 19:20:58
Eccentricity: 0.0010464
inclination: 57.9887°
perigee height: 1337 km
apogee height: 1353 km
right ascension of ascending node: 175.8725°
argument of perigee: 10.0020°
revolutions per day: 12.79126520
mean anomaly at epoch: 349.9980°
orbit number at epoch: 0

The dashed part of the orbit path shows where the satellite is in the earth's shadow,  

DLR